Location: Austin
(30.3000°N, 97.7500°W)
Time: 01:15:21
(UTC-05:00)

Cosmos 2151 - Pass Details

Date: 15 May 2024
Orbit: 569 x 590 km, 82.5° (Epoch: 29 May)

Event Time Altitude Azimuth Distance (km) Brightness Sun altitude
Rises 21:02:21 0° 5° (N) 2,774 6.7 -9.3°
Reaches altitude 10° 21:04:42 10° 15° (NNE) 1,873 5.7 -9.8°
Maximum altitude 21:08:28 34° 81° (E) 950 3.6 -10.5°
Enters shadow 21:11:35 14° 142° (SE) 1,638 4.7 -11.1°
